Weather History for Vidalia, GA

Change the Weather History Date:

Wednesday, January 30, 2013

  Actual Average (KAZE) Record (KAZE)
Temperature  
Mean Temperature 68 °F -  
Max Temperature 80 °F 58 °F 77 °F (2013)
Min Temperature 55 °F 43 °F 25 °F (2014)
Cooling Degree Days 2    
Growing Degree Days 18 (Base 50)    
Moisture  
Dew Point 63 °F    
Average Humidity 80    
Maximum Humidity 94    
Minimum Humidity 54    
Precipitation  
Precipitation 0.00 in - - ()
Sea Level Pressure  
Sea Level Pressure 29.88 in    
Wind  
Wind Speed 10 mph (SSW)    
Max Wind Speed 23 mph    
Max Gust Speed 32 mph    
Visibility 10 miles    
Events Rain    
Averages and records for this station are not official NWS values.
T = Trace of Precipitation, MM = Missing Value Source: NWS Daily Summary

Daily Weather History Graph

Daily Weather History Graph

Search for Another Location

Airport:

Trip Planner

Search our weather history database for the weather conditions in past years. The results will help you decide how hot, cold, wet, or windy it might be!

Date:

Astronomy

Jan. 30, 2013 Rise Set
Actual Time 7:24 AM EST 6:01 PM EST
Civil Twilight 6:58 AM EST 6:27 PM EST
Nautical Twilight 6:29 AM EST 6:56 PM EST
Astronomical Twilight 6:00 AM EST 7:25 PM EST
Moon 9:41 PM EST (1/30) 9:07 AM EST (1/30)
Length of Visible Light 11h 28m
Length of Day
10h 37m
Waning Gibbous, 88% of the Moon is Illuminated
Jan 30
Waning Gibbous
Feb 3
Last Quarter
Feb 10
New
Feb 17
First Quarter
Feb 25
Full

Hourly Weather History & Observations

Time (EST) Temp. Heat Index Dew Point Humidity Pressure Visibility Wind Dir Wind Speed Gust Speed Precip Events Conditions
12:15 AM 66.2 °F - 64.4 °F 94% 30.08 in 10.0 mi South 5.8 mph - N/A   Clear
12:35 AM 68.0 °F - 64.4 °F 88% 30.07 in 10.0 mi South 5.8 mph - N/A   Clear
12:55 AM 68.0 °F - 64.4 °F 88% 30.06 in 10.0 mi SSE 6.9 mph - N/A   Clear
1:15 AM 68.0 °F - 64.4 °F 88% 30.05 in 10.0 mi South 8.1 mph - N/A   Clear
1:35 AM 68.0 °F - 64.4 °F 88% 30.05 in 10.0 mi South 8.1 mph - N/A   Scattered Clouds
1:55 AM 68.0 °F - 64.4 °F 88% 30.04 in 10.0 mi South 9.2 mph - N/A   Overcast
2:15 AM 68.0 °F - 64.4 °F 88% 30.04 in 10.0 mi South 10.4 mph - N/A   Overcast
2:35 AM 68.0 °F - 66.2 °F 94% 30.04 in 10.0 mi South 9.2 mph - N/A   Overcast
2:55 AM 68.0 °F - 64.4 °F 88% 30.04 in 10.0 mi South 6.9 mph - N/A   Overcast
3:15 AM 68.0 °F - 64.4 °F 88% 30.03 in 10.0 mi South 5.8 mph - N/A   Overcast
3:35 AM 68.0 °F - 64.4 °F 88% 30.02 in 10.0 mi SSE 5.8 mph - N/A   Overcast
3:55 AM 68.0 °F - 64.4 °F 88% 30.02 in 10.0 mi South 4.6 mph - N/A   Overcast
4:15 AM 68.0 °F - 64.4 °F 88% 30.02 in 10.0 mi SSW 4.6 mph - N/A   Overcast
4:35 AM 68.0 °F - 64.4 °F 88% 29.99 in 10.0 mi SSE 5.8 mph - N/A   Overcast
4:55 AM 68.0 °F - 64.4 °F 88% 29.99 in 10.0 mi SSE 5.8 mph - N/A   Overcast
5:15 AM 68.0 °F - 64.4 °F 88% 29.97 in 10.0 mi SSE 9.2 mph - N/A   Overcast
5:35 AM 68.0 °F - 66.2 °F 94% 29.97 in 10.0 mi SSE 9.2 mph - N/A   Overcast
5:55 AM 68.0 °F - 66.2 °F 94% 29.96 in 10.0 mi SSE 11.5 mph - N/A   Overcast
6:15 AM 68.0 °F - 66.2 °F 94% 29.97 in 10.0 mi South 9.2 mph - N/A   Overcast
6:35 AM 69.8 °F - 66.2 °F 88% 29.97 in 10.0 mi South 9.2 mph - N/A   Overcast
6:55 AM 69.8 °F - 66.2 °F 88% 29.97 in 10.0 mi South 8.1 mph - N/A   Overcast
7:15 AM 69.8 °F - 66.2 °F 88% 29.96 in 10.0 mi South 8.1 mph - N/A   Overcast
7:35 AM 69.8 °F - 66.2 °F 88% 29.96 in 10.0 mi South 10.4 mph 17.3 mph N/A   Overcast
7:55 AM 69.8 °F - 68.0 °F 94% 29.95 in 10.0 mi South 10.4 mph - N/A   Overcast
8:15 AM 71.6 °F - 68.0 °F 88% 29.95 in 10.0 mi South 10.4 mph - N/A   Overcast
8:55 AM 71.6 °F - 66.2 °F 83% 29.94 in 10.0 mi South 16.1 mph 20.7 mph N/A   Overcast
9:15 AM 73.4 °F - 66.2 °F 78% 29.94 in 10.0 mi South 12.7 mph 27.6 mph N/A   Overcast
9:35 AM 73.4 °F - 64.4 °F 73% 29.95 in 10.0 mi SSW 20.7 mph 26.5 mph N/A   Overcast
9:55 AM 73.4 °F - 64.4 °F 73% 29.94 in 10.0 mi South 19.6 mph 25.3 mph N/A   Scattered Clouds
10:15 AM 77.0 °F - 64.4 °F 65% 29.94 in 10.0 mi SSW 16.1 mph 21.9 mph N/A   Scattered Clouds
10:35 AM 77.0 °F - 62.6 °F 61% 29.93 in 10.0 mi SSW 17.3 mph 32.2 mph N/A   Scattered Clouds
10:55 AM 78.8 °F - 62.6 °F 57% 29.92 in 10.0 mi SSW 15.0 mph 27.6 mph N/A   Scattered Clouds
11:15 AM 78.8 °F - 62.6 °F 57% 29.91 in 10.0 mi SSW 19.6 mph 27.6 mph N/A   Mostly Cloudy
11:35 AM 78.8 °F - 62.6 °F 57% 29.89 in 10.0 mi South 18.4 mph 27.6 mph N/A   Overcast
11:55 AM 78.8 °F - 62.6 °F 57% 29.88 in 10.0 mi SSW 13.8 mph 26.5 mph N/A   Overcast
12:15 PM 80.6 °F 81.8 °F 62.6 °F 54% 29.86 in 10.0 mi SSW 13.8 mph 26.5 mph N/A   Overcast
1:15 PM 80.6 °F 81.8 °F 62.6 °F 54% 29.82 in 10.0 mi SSW 23.0 mph 28.8 mph N/A   Overcast
1:35 PM 80.6 °F 81.8 °F 62.6 °F 54% 29.80 in 10.0 mi SSW 12.7 mph 28.8 mph N/A   Overcast
1:55 PM 80.6 °F 81.8 °F 62.6 °F 54% 29.79 in 10.0 mi SSW 12.7 mph 27.6 mph N/A   Overcast
2:15 PM 77.0 °F - 64.4 °F 65% 29.78 in 10.0 mi South 16.1 mph 29.9 mph N/A Rain Light Rain
2:55 PM 78.8 °F - 62.6 °F 57% 29.76 in 10.0 mi SSW 12.7 mph 24.2 mph N/A   Overcast
3:15 PM 78.8 °F - 62.6 °F 57% 29.75 in 10.0 mi SSW 19.6 mph 29.9 mph N/A   Overcast
3:55 PM 77.0 °F - 64.4 °F 65% 29.74 in 10.0 mi SSW 13.8 mph 18.4 mph N/A   Overcast
4:15 PM 77.0 °F - 66.2 °F 69% 29.73 in 10.0 mi SSW 11.5 mph 17.3 mph N/A   Overcast
4:35 PM 77.0 °F - 64.4 °F 65% 29.72 in 10.0 mi South 13.8 mph 21.9 mph N/A   Overcast
4:55 PM 77.0 °F - 64.4 °F 65% 29.71 in 10.0 mi SSW 12.7 mph 20.7 mph N/A   Overcast
5:15 PM 77.0 °F - 64.4 °F 65% 29.70 in 10.0 mi South 13.8 mph 20.7 mph N/A   Overcast
5:35 PM 73.4 °F - 66.2 °F 78% 29.69 in 10.0 mi SSW 11.5 mph 17.3 mph N/A Rain Light Rain
5:55 PM 73.4 °F - 68.0 °F 83% 29.69 in 10.0 mi SSW 20.7 mph 26.5 mph N/A Rain Light Rain
6:15 PM 75.2 °F - 66.2 °F 73% 29.66 in 10.0 mi South 16.1 mph 32.2 mph N/A   Mostly Cloudy
6:55 PM 73.4 °F - 66.2 °F 78% 29.67 in 10.0 mi South 17.3 mph 23.0 mph N/A   Scattered Clouds
7:15 PM 75.2 °F - 66.2 °F 73% 29.68 in 10.0 mi SSW 15.0 mph 25.3 mph N/A   Mostly Cloudy
7:55 PM 73.4 °F - 68.0 °F 83% 29.68 in 10.0 mi SSW 16.1 mph 27.6 mph N/A   Light Drizzle
8:15 PM 68.0 °F - 62.6 °F 83% 29.73 in 5.0 mi West 17.3 mph 26.5 mph N/A Rain Heavy Rain
8:35 PM 62.6 °F - 60.8 °F 94% 29.74 in 4.0 mi West 10.4 mph 23.0 mph N/A Rain Heavy Rain
8:55 PM 60.8 °F - 57.2 °F 88% 29.77 in 10.0 mi WNW 11.5 mph 23.0 mph N/A Rain Rain
9:15 PM 57.2 °F - 55.4 °F 94% 29.77 in 7.0 mi WNW 9.2 mph 17.3 mph N/A Rain Rain
9:35 PM 57.2 °F - 55.4 °F 94% 29.77 in 10.0 mi WNW 5.8 mph - N/A Rain Light Rain
9:55 PM 57.2 °F - 55.4 °F 94% 29.78 in 10.0 mi West 5.8 mph - N/A Rain Light Rain
10:15 PM 57.2 °F - 53.6 °F 88% 29.79 in 10.0 mi West 4.6 mph - N/A   Overcast
10:35 PM 57.2 °F - 55.4 °F 94% 29.82 in 10.0 mi WSW 6.9 mph - N/A Rain Light Rain
10:55 PM 57.2 °F - 53.6 °F 88% 29.81 in 10.0 mi WSW 10.4 mph - N/A   Overcast
11:15 PM 55.4 °F - 53.6 °F 94% 29.81 in 10.0 mi WSW 9.2 mph - N/A   Overcast
11:35 PM 55.4 °F - 51.8 °F 88% 29.82 in 10.0 mi WSW 9.2 mph - N/A   Overcast
11:55 PM 55.4 °F - 50.0 °F 82% 29.82 in 10.0 mi WSW 10.4 mph 18.4 mph N/A   Overcast